This is the latest recevied weather packets stored in our database for station/object WA4TPR. If no packets are shown the sender has not sent any weather packets the latest 10 day(s).
| Time | Temp. | Humidity | Pressure | Rain* | Wind** | Luminosity | Snow |
|---|---|---|---|---|---|---|---|
| 1777679134 | 28.89° C | 59% | 1013.6 hPa | 0 mm | - | 14 W/m² | - |
| 1777678832 | 28.89° C | 59% | 1013.5 hPa | 0 mm | - | 20 W/m² | - |
| 1777678530 | 28.89° C | 58% | 1013.6 hPa | 0 mm | - | 26 W/m² | - |
| 1777678226 | 29.44° C | 58% | 1013.5 hPa | 0 mm | - | 33 W/m² | - |
| 1777677922 | 29.44° C | 58% | 1013.4 hPa | 0 mm | - | 41 W/m² | - |
| 1777677620 | 30° C | 57% | 1013.3 hPa | 0 mm | - | 50 W/m² | - |
| 1777677318 | 30° C | 57% | 1013.4 hPa | 0 mm | - | 59 W/m² | - |
| 1777677016 | 30° C | 56% | 1013.4 hPa | 0 mm | - | 69 W/m² | - |
| 1777676715 | 30° C | 57% | 1013.5 hPa | 0 mm | - | 79 W/m² | - |
| 1777676412 | 30.56° C | 57% | 1013.2 hPa | 0 mm | - | 91 W/m² | - |
| 1777676110 | 30.56° C | 57% | 1013 hPa | 0 mm | - | 103 W/m² | - |
| 1777675805 | 30.56° C | 56% | 1013.3 hPa | 0 mm | - | 120 W/m² | - |
| 1777675503 | 30.56° C | 56% | 1013.3 hPa | 0 mm | - | 136 W/m² | - |
| 1777675200 | 30.56° C | 56% | 1013.2 hPa | 0 mm | - | 160 W/m² | - |
| 1777674896 | 30.56° C | 56% | 1013.1 hPa | 0 mm | - | 185 W/m² | - |
| 1777674592 | 31.11° C | 57% | 1013 hPa | 0 mm | - | 193 W/m² | - |
| 1777674290 | 31.11° C | 57% | 1012.8 hPa | 0 mm | - | 268 W/m² | - |
| 1777673986 | 31.11° C | 57% | 1012.8 hPa | 0 mm | - | 306 W/m² | - |
| 1777673682 | 31.11° C | 57% | 1013.1 hPa | 0 mm | - | 307 W/m² | - |
| 1777673380 | 30.56° C | 57% | 1012.8 hPa | 0 mm | - | 176 W/m² | - |
| 1777673078 | 31.11° C | 56% | 1013.1 hPa | 0 mm | - | 121 W/m² | - |
| 1777672773 | 31.11° C | 55% | 1013.1 hPa | 0 mm | - | 116 W/m² | - |
| 1777672471 | 31.11° C | 55% | 1013.1 hPa | 0 mm | - | 128 W/m² | - |
| 1777672166 | 31.67° C | 53% | 1013.1 hPa | 0 mm | - | 123 W/m² | - |
| 1777671862 | 31.67° C | 52% | 1013 hPa | 0 mm | - | 189 W/m² | - |
* Rain latest hour (hover to see other rain measurements)
** Current wind speed in m/s (hover to see current wind gust speed)